METEOR 2-7 DEB

Satellite information

Favourite Embed

Satellite Type and Status

DEBRISIN ORBIT

Key statistics

Satellite METEOR 2-7 DEB at a glance.

Uptime

16235

Days in orbit

Revolutions

≈ 14.3

Per day

Orbit

LEO

Low Earth Orbit

Inclination

81.3

Latest

Satellite identification and parameters

Extended collection of information and parameters for METEOR 2-7 DEB.

Object identification

Identified? True

Debris? True

Object name: METEOR 2-7 DEB

International designator: 1981-043Z

Object number (NORAD): 43302

Object ID (CCSDS): 43302

Country: COMMONWEALTH OF INDEPENDENT STATES (CIS)

Current information (Y/N): Y

RCS size: SMALL

Orbital parameters

Period: 100.444 minutes

Inclination: 81.2527 deg

SMA: 7157.745 km

Apoapsis: 809.232 km

Periapsis: 749.987 km

RAAN: 296.0651 deg

Eccentricy: 0.0041385

Argument of periapsis: 3.3393 deg

Mean anomaly: 356.8058 deg

Mean motion: 14.33634561 rev/day

Mean motion (dot): 0.0001021 rev/day2

B* drag term: 0.0036423 1/REarth

Two-line elements (TLE)

Creation date: Oct. 23, 2025, 10:16 p.m.

Reference frame: TEME

Reference center: EARTH

Epoch: Oct. 23, 2025, 7:32 a.m. UTC

TLE line 0: 0 METEOR 2-7 DEB

TLE line 1: 1 43302U 81043Z 25296.31392141 .00010210 00000-0 36423-2 0 9990

TLE line 2: 2 43302 81.2527 296.0651 0041385 3.3393 356.8058 14.33634561497607

Live tracking on map

Real-time ground track for satellite METEOR 2-7 DEB.

In-orbit conjunctions

A list of the most updated potential collisions computed for object METEOR 2-7 DEB.

Target Orbit TCA Probability of collision Miss distance Type
FENGYUN 1C DEB SSO 2025-01-19 08:18:09 0.0001045152 78.0 (m) DEBRIS
CZ-6A DEB LEO 2024-10-22 01:54:54 0.0001433467 978.0 (m) DEBRIS
DMSP 5D-2 F13 DEB SSO 2024-07-15 03:16:00 0.000101388 115.0 (m) DEBRIS

Associated space launch

Second generation soviet meteorological satellite

METEOR 2-7 DEB was lifted into orbit during the mission ‘Vostok 8A92M | Meteor-2 7’, on board a Vostok 8A92M space rocket.

The launch took place on May 14, 1981, 9:45 p.m. from 43/3 (43L).

For more information about the launch, click the button.

Launch to space Vostok 8A92M | Meteor-2 7
Vostok 8A92M | Meteor-2 7

Agency: N/A

Status: Launch Successful

Launch date: May 14, 1981, 9:45 p.m. UTC

Rocket: Vostok 8A92M

Launch pad: 43/3 (43L)

Location: Plesetsk Cosmodrome, Russian Federation

...

Latest news about this satellite

There are no fresh news available about this satellite. Check back as we update our databases every day.


Newsletter sign-up

Weekly statistics, charts and insights to help you stay on top of the space industry.